Miscellaneous Local Product
Issued by NWS Hastings, NE

Home | Current Version | Previous Version | Graphics & Text | Print | Product List | Glossary On
Versions: 1 2 3 4 5 6 7 8 9 10 11 12 13 14 15 16 17 18 19 20 21 22 23 24 25 26 27 28 29 30 31 32 33 34 35 36 37 38 39 40 41 42 43 44 45 46 47 48 49 50
000
AXUS43 KGID 021402
MISGRI

GID CWA HOURLY WEATHER ROUNDUP
NATIONAL WEATHER SERVICE HASTINGS NE
900 AM CDT MON MAY 02 2016

NOTE: "FAIR" INDICATES FEW OR NO CLOUDS BELOW 12,000 FEET WITH NO
SIGNIFICANT WEATHER AND/OR OBSTRUCTIONS TO VISIBILITY.

...SOUTH CENTRAL NEBRASKA...

CITY           SKY/WX    TMP DP  RH WIND       PRES   REMARKS
GRAND ISLAND   SUNNY     46  38  73 NW8       30.18S
HASTINGS       SUNNY     47  37  68 NW10      30.18S
KEARNEY        SUNNY     43  37  81 NW7       30.20R
ORD            SUNNY     42  37  82 N3        30.17S
YORK           SUNNY     48  41  76 NW12      30.16F
AURORA         SUNNY     47  42  81 NW8       30.18S
LEXINGTON      SUNNY     41  36  83 NW7       30.20S
HOLDREGE       SUNNY     41  37  83 NW5       30.20S
HEBRON         MOSUNNY   50  43  78 NW7       30.17S

...NEBRASKA PANHANDLE...

CITY           SKY/WX    TMP DP  RH WIND       PRES   REMARKS
CHADRON        SUNNY     41  35  79 SW6       30.18F
ALLIANCE       SUNNY     34  31  88 W7        30.19S WCI  28
SCOTTSBLUFF    SUNNY     38  30  73 W10       30.22F WCI  31
SIDNEY         SUNNY     35  27  72 W10       30.22S WCI  27

...WESTERN AND NORTH CENTRAL NEBRASKA...

CITY           SKY/WX    TMP DP  RH WIND       PRES   REMARKS
VALENTINE      MOSUNNY   42  35  76 W7        30.16F
AINSWORTH      SUNNY     46  38  73 W8        30.16F
ONEILL         SUNNY     46  38  72 W6        30.16F
BROKEN BOW     SUNNY     46  36  68 CALM      30.18S
IMPERIAL       SUNNY     39  31  72 NW9       30.22S WCI  33
NORTH PLATTE   SUNNY     41  34  76 W7        30.20S
MCCOOK         SUNNY     42  34  73 W7        30.22R

...EASTERN NEBRASKA...

CITY           SKY/WX    TMP DP  RH WIND       PRES   REMARKS
NORFOLK        SUNNY     45  38  76 W6        30.16S
SO SIOUX CITY  SUNNY     49  42  77 NW6       30.15S
TEKAMAH        SUNNY     49  42  77 N7        30.15S
COLUMBUS       SUNNY     48  36  61 W7        30.17S
ALBION         SUNNY     46  39  78 NW7       30.17S
OMAHA EPPLEY   MOSUNNY   50  43  77 NW3       30.15S
OFFUTT AFB     MOSUNNY   52  43  70 NE6       30.14S
MILLARD        MOSUNNY   49  40  69 N6        30.15S
LINCOLN        SUNNY     53  40  61 N10       30.17S
NEBRASKA CITY  CLOUDY    49  44  82 N8        30.14S
BEATRICE       CLOUDY    49  44  83 N7        30.16R
FALLS CITY     CLOUDY    51  45  79 N8        30.13R

...NORTHERN KANSAS...

CITY           SKY/WX    TMP DP  RH WIND       PRES   REMARKS
GOODLAND       SUNNY     41  32  70 W9        30.23S
HILL CITY      SUNNY     48  37  65 NW12      30.21S
NORTON         SUNNY     43  34  70 W10       30.20S
PHILLIPSBURG   SUNNY     46  39  76 W7        30.20S
SMITH CENTER   SUNNY     46  41  81 NW6       30.20S
BELOIT         CLOUDY    46  39  76 W6        30.18S
HAYS           SUNNY     48  36  61 NW8       30.20S
RUSSELL        SUNNY     47  41  80 NW10      30.19R
CONCORDIA      CLOUDY    49  42  77 NW8       30.17S
SALINA         CLOUDY    50  44  80 NW10      30.18S
TOPEKA         CLOUDY    52  44  74 NW6       30.13S



USA.gov is the U.S. government's official web portal to all federal, state and local government web resources and services.